Hourly Data Report for October 28, 2015

All times are specified in Local Standard Time (LST). Add 1 hour to adjust for Daylight Saving Time where and when it is observed.

BAKER LAKE A
NUNAVUT

64°17'56.000" N
96°04'40.000" W
18.60 m
2300503
71926
YBK

Download Data

Hourly Data (October 2015)
Hourly Data Report for October 28, 2015
Temp Definition
°C
Dew Point Temp Definition
°C
Rel Hum Definition
%
Wind Dir Definition
10's deg

Wind Spd Definition
km/h
Visibility Definition
km
Stn Press Definition
kPa
Hmdx Definition


Wind Chill Definition


Weather Definition


TIME
00:00 Legend Double Dagger -18.3 -20.5 83 36 2 24.1 101.41   -20 Mainly Clear
01:00 Legend Double Dagger -18.4 -20.6 83 36 3 24.1 101.39   -21 LegendNANA
02:00 Legend Double Dagger -16.7 -18.7 85   0 24.1 101.37     LegendNANA
03:00 Legend Double Dagger -16.9 -19.0 84 22 5 24.1 101.37   -21 Mostly Cloudy
04:00 Legend Double Dagger -16.6 -18.7 84 16 3 24.1 101.36   -19 LegendNANA
05:00 Legend Double Dagger -16.7 -18.7 85 15 6 24.1 101.33   -21 LegendNANA
06:00 Legend Double Dagger -17.0 -19.1 84 23 9 16.1 101.31   -23 Mainly Clear
07:00 Legend Double Dagger -15.2 -17.0 86 11 3 24.1 101.28   -17 Snow
08:00 Legend Double Dagger -12.9 -14.5 88 25 15 24.1 101.23   -20 Snow
09:00 Legend Double Dagger -13.0 -14.6 88 21 9 24.1 101.20   -18 Snow
10:00 Legend Double Dagger -12.1 -13.7 88 20 5 24.1 101.17   -15 Snow
11:00 Legend Double Dagger -10.1 -11.4 90 25 7 24.1 101.17   -14 Snow
12:00 Legend Double Dagger -9.5 -10.9 90 21 5 24.1 101.17   -12 Snow
13:00 Legend Double Dagger -8.5 -9.7 91 27 5 24.1 101.14   -11 Snow
14:00 Legend Double Dagger -7.2 -8.3 92 31 18 32.2 101.14   -14 Snow
15:00 Legend Double Dagger -7.3 -8.5 91 31 19 24.1 101.16   -14 Snow
16:00 Legend Double Dagger -7.2 -8.9 88 32 16 24.1 101.15   -14 Snow
17:00 Legend Double Dagger -7.3 -9.1 87 32 18 24.1 101.16   -14 Snow
18:00 Legend Double Dagger -7.5 -9.5 86 32 16 24.1 101.16   -14 Snow
19:00 Legend Double Dagger -7.6 -9.9 84 31 18 16.1 101.15   -14 Snow
20:00 Legend Double Dagger -7.9 -10.5 82 32 18 24.1 101.16   -15 Snow
21:00 Legend Double Dagger -8.1 -10.3 84 32 15 24.1 101.12   -14 Snow
22:00 Legend Double Dagger -8.3 -10.4 85 30 9 24.1 101.11   -13 Snow
23:00 Legend Double Dagger -8.3 -10.4 85 32 14 24.1 101.09   -14 Snow

Notes on Data Quality.

Legend

  • E = Estimated
  • M = Missing
  • NA = Not Available
  • ‡ = Partner data that is not subject to review by the National Climate Archives
Date modified: